Location: Saluda
(35.2377°N, 82.3468°W)
Time: 17:03:32
(UTC+00:00)

Explorer 11/Cluster Stage 4 - Pass Details

Date: 07 October 2022
Orbit: 466 x 1247 km, 28.8° (Epoch: 08 December)

Event Time Altitude Azimuth Distance (km) Brightness Sun altitude
Rises 19:59:13 0° 270° (W) 4,111 10.9 34.1°
Reaches altitude 10° 20:02:42 10° 259° (W) 3,068 10.7 33.5°
Maximum altitude 20:08:48 27° 206° (SSW) 1,921 10.0 32.5°
Drops below altitude 10° 20:14:08 10° 151° (SSE) 2,648 9.5 31.6°
Sets 20:16:56 0° 139° (SE) 3,454 9.8 31.2°
